This is the latest recevied weather packets stored in our database for station/object K1BES. If no packets are shown the sender has not sent any weather packets the latest 10 day(s).
| Time | Temp. | Humidity | Pressure | Rain* | Wind** | Luminosity | Snow |
|---|---|---|---|---|---|---|---|
| 1777660188 | 28.89° C | 70% | 1014.8 hPa | 0 mm | - | 853 W/m² | - |
| 1777659885 | 28.89° C | 70% | 1014.8 hPa | 0 mm | - | 1014 W/m² | - |
| 1777659581 | 28.89° C | 70% | 1015 hPa | 0 mm | - | 1017 W/m² | - |
| 1777659279 | 28.89° C | 70% | 1014.8 hPa | 0 mm | - | 1029 W/m² | - |
| 1777658976 | 28.89° C | 72% | 1014.9 hPa | 0 mm | - | 1089 W/m² | - |
| 1777658673 | 28.33° C | 72% | 1014.9 hPa | 0 mm | - | 467 W/m² | - |
| 1777658369 | 28.33° C | 72% | 1015 hPa | 0 mm | - | 589 W/m² | - |
| 1777658066 | 28.89° C | 71% | 1015.1 hPa | 0 mm | - | 1204 W/m² | - |
| 1777657763 | 28.89° C | 70% | 1015.4 hPa | 0 mm | - | 865 W/m² | - |
| 1777657461 | 28.89° C | 70% | 1015.1 hPa | 0 mm | - | 1135 W/m² | - |
| 1777657158 | 28.33° C | 72% | 1015.1 hPa | 0 mm | - | 1188 W/m² | - |
| 1777656855 | 28.33° C | 73% | 1015.3 hPa | 0 mm | - | 697 W/m² | - |
| 1777656550 | 28.89° C | 71% | 1015.3 hPa | 0 mm | - | 543 W/m² | - |
| 1777656246 | 28.33° C | 72% | 1015.4 hPa | 0 mm | - | 795 W/m² | - |
| 1777655942 | 28.33° C | 71% | 1015.5 hPa | 0 mm | - | 1024 W/m² | - |
| 1777655638 | 28.89° C | 71% | 1015.6 hPa | 0 mm | - | 606 W/m² | - |
| 1777655335 | 29.44° C | 69% | 1015.4 hPa | 0 mm | - | 637 W/m² | - |
| 1777655032 | 29.44° C | 70% | 1015.7 hPa | 0 mm | - | 965 W/m² | - |
| 1777654730 | 29.44° C | 70% | 1015.5 hPa | 0 mm | - | 818 W/m² | - |
| 1777654428 | 29.44° C | 70% | 1015.5 hPa | 0 mm | - | 1089 W/m² | - |
| 1777654125 | 28.89° C | 71% | 1015.3 hPa | 0 mm | - | 1001 W/m² | - |
| 1777653823 | 28.89° C | 70% | 1015.2 hPa | 0 mm | - | 1006 W/m² | - |
| 1777653518 | 28.89° C | 69% | 1015.3 hPa | 0 mm | - | 994 W/m² | - |
| 1777653215 | 28.89° C | 69% | 1015.6 hPa | 0 mm | - | 988 W/m² | - |
| 1777652912 | 28.89° C | 70% | 1015.8 hPa | 0 mm | - | 977 W/m² | - |
* Rain latest hour (hover to see other rain measurements)
** Current wind speed in m/s (hover to see current wind gust speed)